TimeEDT,TemperatureF,Dew PointF,Humidity,Sea Level PressureIn,VisibilityMPH,Wind Direction,Wind SpeedMPH,Gust SpeedMPH,PrecipitationIn,Events,Conditions,WindDirDegrees,DateUTC
12:53 AM,78.1,66.0,66,29.99,10.0,ENE,5.8,-,N/A,,Clear,60,2013-10-12 04:53:00
1:53 AM,77.0,64.9,66,29.99,10.0,Calm,Calm,-,N/A,,Clear,0,2013-10-12 05:53:00
2:53 AM,73.9,64.0,71,29.97,10.0,Calm,Calm,-,N/A,,Clear,0,2013-10-12 06:53:00
3:53 AM,72.0,64.9,78,29.96,10.0,Calm,Calm,-,N/A,,Clear,0,2013-10-12 07:53:00
4:53 AM,73.0,66.0,79,29.97,10.0,Calm,Calm,-,N/A,,Clear,0,2013-10-12 08:53:00
5:53 AM,73.0,64.9,76,29.99,10.0,Calm,Calm,-,N/A,,Clear,0,2013-10-12 09:53:00
6:53 AM,73.0,64.9,76,30.00,10.0,Calm,Calm,-,N/A,,Partly Cloudy,0,2013-10-12 10:53:00
7:53 AM,75.0,66.0,73,30.01,10.0,Calm,Calm,-,N/A,,Partly Cloudy,0,2013-10-12 11:53:00
8:53 AM,81.0,66.0,60,30.02,10.0,Calm,Calm,-,N/A,,Partly Cloudy,0,2013-10-12 12:53:00
9:53 AM,82.9,64.0,53,30.03,10.0,Variable,4.6,-,N/A,,Partly Cloudy,0,2013-10-12 13:53:00
10:53 AM,84.0,64.9,53,30.03,10.0,ENE,5.8,-,N/A,,Partly Cloudy,60,2013-10-12 14:53:00
11:53 AM,84.9,63.0,48,30.03,10.0,NE,9.2,-,N/A,,Scattered Clouds,50,2013-10-12 15:53:00
12:53 PM,84.0,64.0,51,30.01,10.0,ENE,6.9,-,N/A,,Scattered Clouds,60,2013-10-12 16:53:00
1:53 PM,84.9,66.0,53,29.99,10.0,East,10.4,18.4,N/A,,Scattered Clouds,90,2013-10-12 17:53:00
2:53 PM,82.9,64.0,53,29.98,10.0,East,9.2,17.3,N/A,,Mostly Cloudy,90,2013-10-12 18:53:00
3:53 PM,84.0,64.9,53,29.98,10.0,East,9.2,-,N/A,,Mostly Cloudy,80,2013-10-12 19:53:00
4:53 PM,82.9,64.9,54,29.99,10.0,NE,6.9,-,N/A,,Scattered Clouds,50,2013-10-12 20:53:00
5:53 PM,82.0,66.0,58,29.99,10.0,ESE,13.8,-,N/A,,Mostly Cloudy,110,2013-10-12 21:53:00
6:53 PM,81.0,66.0,60,30.00,10.0,NE,8.1,-,N/A,,Scattered Clouds,50,2013-10-12 22:53:00
7:53 PM,80.1,66.0,62,30.01,10.0,ENE,6.9,-,N/A,,Scattered Clouds,70,2013-10-12 23:53:00
8:53 PM,79.0,66.0,64,30.02,10.0,East,9.2,-,N/A,,Scattered Clouds,90,2013-10-13 00:53:00
9:53 PM,78.1,66.0,66,30.04,10.0,East,6.9,-,N/A,,Partly Cloudy,90,2013-10-13 01:53:00
10:53 PM,79.0,66.9,66,30.04,10.0,East,6.9,-,N/A,,Partly Cloudy,90,2013-10-13 02:53:00
11:53 PM,77.0,66.9,71,30.04,10.0,East,5.8,-,N/A,,Partly Cloudy,80,2013-10-13 03:53:00